DH0GMA Weather Reports


Display with metric or nautical units.
time (UTC)temp
F
wind
direction
speed
MPH
gust
MPH
rain 1hr
in
rain 24hr
in
rain mn
in
humidity
%
barometer
mb
20260502185503 68 64 0.0 0.0 0.00 0.00 0.00 41 1016.5
20260502184503 69 64 0.0 0.0 0.00 0.00 0.00 40 1016.4
20260502183502 70 64 0.0 2.0 0.00 0.00 0.00 39 1016.4
20260502182502 71 64 0.0 0.0 0.00 0.00 0.00 37 1016.3
20260502181502 71 64 0.0 0.0 0.00 0.00 0.00 36 1016.3
20260502180502 72 64 0.0 0.0 0.00 0.00 0.00 35 1016.3
20260502170504 77 64 1.0 2.0 0.00 0.00 0.00 28 1016.5
20260502163502 77 64 0.0 4.0 0.00 0.00 0.00 32 1016.7
20260502162502 77 62 0.0 1.0 0.00 0.00 0.00 30 1016.9
20260502161502 77 60 0.0 3.0 0.00 0.00 0.00 31 1017.1
20260502160502 77 44 1.0 3.0 0.00 0.00 0.00 31 1017.1
20260502151503 77 181 1.0 3.0 0.00 0.00 0.00 32 1017.7
20260502150503 78 122 1.0 4.0 0.00 0.00 0.00 30 1017.8
20260502130503 76 63 2.0 3.0 0.00 0.00 0.00 35 1019.4
20260502123502 75 87 1.0 3.0 0.00 0.00 0.00 34 1019.8
20260502122504 75 214 3.0 5.0 0.00 0.00 0.00 32 1019.9
20260502121504 75 256 2.0 4.0 0.00 0.00 0.00 32 1020.1
20260502120505 74 173 2.0 4.0 0.00 0.00 0.00 31 1020.3
20260502115505 74 320 2.0 3.0 0.00 0.00 0.00 33 1020.4
20260502114505 74 243 2.0 4.0 0.00 0.00 0.00 33 1020.6
20260502113505 74 331 1.0 4.0 0.00 0.00 0.00 33 1020.8
20260502112505 73 247 3.0 8.0 0.00 0.00 0.00 34 1020.9
20260502111505 73 182 3.0 5.0 0.00 0.00 0.00 35 1021.0
20260502110505 73 289 0.0 3.0 0.00 0.00 0.00 33 1021.1
20260502105505 72 178 2.0 5.0 0.00 0.00 0.00 36 1021.2
20260502104504 72 203 2.0 4.0 0.00 0.00 0.00 39 1021.2
20260502103504 71 251 1.0 4.0 0.00 0.00 0.00 42 1021.4
20260502102504 70 258 3.0 5.0 0.00 0.00 0.00 42 1021.6
20260502101504 70 287 1.0 3.0 0.00 0.00 0.00 46 1021.7
20260502100504 69 232 2.0 7.0 0.00 0.00 0.00 44 1021.8
20260502091505 65 260 1.0 4.0 0.00 0.00 0.00 54 1022.2
20260502090504 63 232 0.0 4.0 0.00 0.00 0.00 56 1022.3
20260502071504 53 187 0.0 4.0 0.00 0.00 0.00 66 1023.0
20260502070505 53 199 1.0 3.0 0.00 0.00 0.00 66 1023.1
20260502065505 52 197 0.0 2.0 0.00 0.00 0.00 70 1023.1
20260502064505 51 197 0.0 0.0 0.00 0.00 0.00 70 1023.1
20260502063504 50 197 0.0 0.0 0.00 0.00 0.00 71 1023.2
20260502062504 49 194 0.0 0.0 0.00 0.00 0.00 75 1023.1
20260502061504 47 194 0.0 0.0 0.00 0.00 0.00 77 1023.1
20260502060504 46 194 0.0 0.0 0.00 0.00 0.00 76 1023.1
20260502055503 45 194 0.0 0.0 0.00 0.00 0.00 80 1023.1
20260502054503 44 194 0.0 0.0 0.00 0.00 0.00 79 1023.0
20260502053503 43 196 0.0 0.0 0.00 0.00 0.00 80 1023.0
20260502052505 42 196 0.0 0.0 0.00 0.00 0.00 82 1023.0
20260502051505 41 196 0.0 0.0 0.00 0.00 0.00 83 1023.0
20260502050505 40 196 0.0 1.0 0.00 0.00 0.00 84 1023.0
20260502045505 39 196 0.0 0.0 0.00 0.00 0.00 85 1023.0
20260502044505 38 196 0.0 0.0 0.00 0.00 0.00 84 1022.9
20260502043504 38 196 0.0 0.0 0.00 0.00 0.00 84 1023.0
20260502042504 38 196 0.0 0.0 0.00 0.00 0.00 84 1022.9
20260502041504 38 196 0.0 1.0 0.00 0.00 0.00 83 1022.9
20260502040504 39 196 0.0 3.0 0.00 0.00 0.00 82 1023.0
20260502035504 39 195 0.0 0.0 0.00 0.00 0.00 82 1022.8
20260502034504 40 195 0.0 0.0 0.00 0.00 0.00 81 1022.8
20260502033503 40 195 0.0 0.0 0.00 0.00 0.00 80 1022.8
20260502032503 41 195 0.0 0.0 0.00 0.00 0.00 80 1022.9
20260502031505 41 196 0.0 0.0 0.00 0.00 0.00 80 1022.8
20260502030505 41 195 0.0 0.0 0.00 0.00 0.00 79 1023.0
20260502025505 42 195 0.0 0.0 0.00 0.00 0.00 78 1022.9
20260502024505 42 196 0.0 0.0 0.00 0.00 0.00 78 1022.9
20260502023505 42 196 0.0 0.0 0.00 0.00 0.00 77 1023.1
20260502022505 43 195 0.0 0.0 0.00 0.00 0.00 76 1023.1
20260502021505 44 196 0.0 0.0 0.00 0.00 0.00 75 1023.1
20260502020505 44 196 0.0 0.0 0.00 0.00 0.00 75 1023.2
20260502015504 44 196 0.0 2.0 0.00 0.00 0.00 76 1023.1
20260502014504 44 196 0.0 0.0 0.00 0.00 0.00 76 1023.2
20260502013504 44 195 0.0 0.0 0.00 0.00 0.00 74 1023.2
20260502012504 45 196 0.0 2.0 0.00 0.00 0.00 72 1023.3
20260502011504 47 109 0.0 3.0 0.00 0.00 0.00 70 1023.5
20260502010503 48 56 0.0 0.0 0.00 0.00 0.00 68 1023.3
20260502005503 48 56 0.0 1.0 0.00 0.00 0.00 67 1023.3
20260502004503 49 56 2.0 5.0 0.00 0.00 0.00 67 1023.3
20260502003503 48 60 1.0 3.0 0.00 0.00 0.00 68 1023.5
20260502002505 48 60 1.0 2.0 0.00 0.00 0.00 68 1023.5
20260502001505 47 60 1.0 2.0 0.00 0.00 0.00 70 1023.6
20260502000505 47 60 0.0 0.0 0.00 0.00 0.00 70 1023.7
20260501235504 47 60 0.0 0.0 0.00 0.00 0.00 70 1023.7
20260501234504 47 60 0.0 0.0 0.00 0.00 0.00 69 1023.8
20260501233504 48 60 0.0 0.0 0.00 0.00 0.00 68 1023.9
20260501232504 49 60 0.0 0.0 0.00 0.00 0.00 67 1024.0
20260501231504 49 60 0.0 0.0 0.00 0.00 0.00 65 1024.0
20260501230504 50 60 0.0 0.0 0.00 0.00 0.00 63 1024.2
20260501225503 51 60 0.0 0.0 0.00 0.00 0.00 62 1024.1
20260501224503 51 60 0.0 0.0 0.00 0.00 0.00 61 1024.0
20260501223503 52 60 0.0 0.0 0.00 0.00 0.00 60 1024.1
20260501222505 53 60 0.0 1.0 0.00 0.00 0.00 59 1024.1
20260501221505 53 60 0.0 2.0 0.00 0.00 0.00 58 1024.1
20260501220505 54 62 1.0 2.0 0.00 0.00 0.00 57 1024.2
20260501215504 54 62 1.0 2.0 0.00 0.00 0.00 56 1024.1
20260501214504 54 62 0.0 2.0 0.00 0.00 0.00 56 1024.2
20260501213504 55 62 0.0 0.0 0.00 0.00 0.00 55 1024.3
20260501212502 55 62 0.0 1.0 0.00 0.00 0.00 54 1024.2
20260501211504 56 62 0.0 1.0 0.00 0.00 0.00 54 1024.3
20260501210504 56 62 0.0 2.0 0.00 0.00 0.00 53 1024.2
20260501205504 56 62 1.0 2.0 0.00 0.00 0.00 53 1024.2
20260501204503 56 62 0.0 2.0 0.00 0.00 0.00 52 1024.4
20260501203503 57 62 0.0 1.0 0.00 0.00 0.00 52 1024.4
20260501202503 57 63 1.0 2.0 0.00 0.00 0.00 51 1024.3
20260501201503 58 64 0.0 4.0 0.00 0.00 0.00 50 1024.4
20260501200503 58 67 2.0 5.0 0.00 0.00 0.00 50 1024.3
20260501195236 59 83 3.0 6.0 0.00 0.00 0.00 49 1024.2
20260501194236 59 54 2.0 6.0 0.00 0.00 0.00 48 1024.2
20260501193236 60 66 2.0 5.0 0.00 0.00 0.00 47 1024.1
20260501192236 60 76 3.0 6.0 0.00 0.00 0.00 47 1024.1
20260501191236 60 53 1.0 4.0 0.00 0.00 0.00 46 1023.9
20260501190236 61 52 1.0 2.0 0.00 0.00 0.00 45 1024.0